Weather History for Bentonville, AR

Change the Weather History Date:

Friday, May 24, 2013

  Actual Average Record
Temperature  
Mean Temperature 68 °F -  
Max Temperature 78 °F 77 °F 90 °F (1962)
Min Temperature 57 °F 56 °F 43 °F (1983)
Cooling Degree Days 2    
Growing Degree Days 18 (Base 50)    
Moisture  
Dew Point 54 °F    
Average Humidity 66    
Maximum Humidity 82    
Minimum Humidity 51    
Precipitation  
Precipitation 0.00 in - - ()
Sea Level Pressure  
Sea Level Pressure 30.21 in    
Wind  
Wind Speed 10 mph (ESE)    
Max Wind Speed 16 mph    
Max Gust Speed 21 mph    
Visibility 10 miles    
Events      
Averages and records for this station are not official NWS values.
T = Trace of Precipitation, MM = Missing Value Source: NWS Daily Summary

Daily Weather History Graph

Daily Weather History Graph

Search for Another Location

Airport:

Trip Planner

Search our weather history database for the weather conditions in past years. The results will help you decide how hot, cold, wet, or windy it might be!

Date:

Astronomy

May. 24, 2013 Rise Set
Actual Time 6:04 AM CDT 8:23 PM CDT
Civil Twilight 5:34 AM CDT 8:53 PM CDT
Nautical Twilight 4:58 AM CDT 9:29 PM CDT
Astronomical Twilight 4:19 AM CDT 10:09 PM CDT
Moon 8:07 PM CDT (5/24) 5:35 AM CDT (5/24)
Length of Visible Light 15h 18m
Length of Day
14h 19m
Full, 100% of the Moon is Illuminated
May 24
Full
May 24
Full
May 31
Last Quarter
Jun 8
New
Jun 16
First Quarter

Hourly Weather History & Observations

Time (CDT) Temp. Dew Point Humidity Pressure Visibility Wind Dir Wind Speed Gust Speed Precip Events Conditions
12:15 AM 62.6 °F 53.6 °F 72% 30.17 in 10.0 mi ENE 8.1 mph - N/A   Clear
12:35 AM 62.6 °F 53.6 °F 72% 30.17 in 10.0 mi East 9.2 mph - N/A   Clear
12:55 AM 60.8 °F 53.6 °F 77% 30.18 in 10.0 mi East 8.1 mph - N/A   Clear
1:15 AM 60.8 °F 53.6 °F 77% 30.18 in 10.0 mi East 10.4 mph - N/A   Clear
1:35 AM 60.8 °F 51.8 °F 72% 30.18 in 10.0 mi ESE 9.2 mph - N/A   Clear
1:55 AM 60.8 °F 51.8 °F 72% 30.17 in 10.0 mi East 10.4 mph - N/A   Clear
2:15 AM 60.8 °F 51.8 °F 72% 30.18 in 10.0 mi East 8.1 mph - N/A   Clear
2:35 AM 60.8 °F 51.8 °F 72% 30.17 in 10.0 mi East 9.2 mph - N/A   Clear
2:55 AM 60.8 °F 51.8 °F 72% 30.18 in 10.0 mi East 11.5 mph 16.1 mph N/A   Clear
3:15 AM 60.8 °F 51.8 °F 72% 30.18 in 10.0 mi East 11.5 mph - N/A   Clear
3:35 AM 59.0 °F 51.8 °F 77% 30.18 in 10.0 mi East 10.4 mph 16.1 mph N/A   Clear
3:55 AM 59.0 °F 51.8 °F 77% 30.18 in 10.0 mi East 9.2 mph - N/A   Clear
4:15 AM 57.2 °F 51.8 °F 82% 30.19 in 10.0 mi East 8.1 mph - N/A   Clear
4:35 AM 57.2 °F 51.8 °F 82% 30.20 in 10.0 mi East 9.2 mph - N/A   Clear
4:55 AM 57.2 °F 51.8 °F 82% 30.20 in 10.0 mi East 9.2 mph - N/A   Clear
5:15 AM 57.2 °F 51.8 °F 82% 30.21 in 10.0 mi East 10.4 mph - N/A   Clear
5:35 AM 57.2 °F 51.8 °F 82% 30.22 in 10.0 mi East 11.5 mph 16.1 mph N/A   Clear
5:55 AM 57.2 °F 51.8 °F 82% 30.23 in 10.0 mi East 11.5 mph 16.1 mph N/A   Clear
6:15 AM 57.2 °F 51.8 °F 82% 30.24 in 10.0 mi East 10.4 mph 16.1 mph N/A   Clear
6:35 AM 57.2 °F 51.8 °F 82% 30.24 in 10.0 mi East 12.7 mph 19.6 mph N/A   Clear
6:55 AM 57.2 °F 51.8 °F 82% 30.24 in 10.0 mi East 10.4 mph 17.3 mph N/A   Clear
7:15 AM 57.2 °F 51.8 °F 82% 30.24 in 10.0 mi East 12.7 mph 18.4 mph N/A   Clear
7:35 AM 59.0 °F 51.8 °F 77% 30.24 in 10.0 mi East 16.1 mph - N/A   Clear
7:55 AM 60.8 °F 50.0 °F 68% 30.24 in 10.0 mi East 12.7 mph 20.7 mph N/A   Clear
8:15 AM 60.8 °F 50.0 °F 68% 30.25 in 10.0 mi East 16.1 mph 19.6 mph N/A   Clear
8:35 AM 60.8 °F 51.8 °F 72% 30.25 in 10.0 mi East 12.7 mph 17.3 mph N/A   Clear
8:55 AM 60.8 °F 51.8 °F 72% 30.26 in 10.0 mi East 12.7 mph - N/A   Clear
9:15 AM 62.6 °F 51.8 °F 68% 30.27 in 10.0 mi East 11.5 mph 17.3 mph N/A   Clear
9:35 AM 64.4 °F 51.8 °F 64% 30.28 in 10.0 mi East 13.8 mph - N/A   Clear
9:55 AM 64.4 °F 51.8 °F 64% 30.28 in 10.0 mi ESE 12.7 mph 16.1 mph N/A   Clear
10:15 AM 66.2 °F 53.6 °F 64% 30.27 in 10.0 mi East 11.5 mph 16.1 mph N/A   Clear
10:35 AM 66.2 °F 51.8 °F 60% 30.27 in 10.0 mi East 13.8 mph 17.3 mph N/A   Clear
10:55 AM 66.2 °F 53.6 °F 64% 30.27 in 10.0 mi ENE 11.5 mph - N/A   Clear
11:15 AM 66.2 °F 53.6 °F 64% 30.27 in 10.0 mi East 10.4 mph - N/A   Clear
11:35 AM 69.8 °F 53.6 °F 56% 30.27 in 10.0 mi East 9.2 mph - N/A   Clear
11:55 AM 69.8 °F 53.6 °F 56% 30.27 in 10.0 mi East 9.2 mph - N/A   Clear
12:15 PM 71.6 °F 53.6 °F 53% 30.26 in 10.0 mi ENE 8.1 mph - N/A   Clear
12:35 PM 71.6 °F 55.4 °F 57% 30.26 in 10.0 mi East 9.2 mph - N/A   Clear
12:55 PM 73.4 °F 55.4 °F 53% 30.25 in 10.0 mi SE 10.4 mph - N/A   Clear
1:15 PM 73.4 °F 57.2 °F 57% 30.24 in 10.0 mi SE 11.5 mph - N/A   Clear
1:35 PM 73.4 °F 57.2 °F 57% 30.24 in 10.0 mi SE 11.5 mph 18.4 mph N/A   Clear
1:55 PM 73.4 °F 57.2 °F 57% 30.24 in 10.0 mi ESE 9.2 mph 17.3 mph N/A   Clear
2:15 PM 75.2 °F 59.0 °F 57% 30.24 in 10.0 mi SE 12.7 mph 16.1 mph N/A   Clear
2:35 PM 75.2 °F 57.2 °F 53% 30.23 in 10.0 mi ESE 9.2 mph - N/A   Clear
2:55 PM 75.2 °F 59.0 °F 57% 30.23 in 10.0 mi SE 10.4 mph - N/A   Clear
3:15 PM 75.2 °F 59.0 °F 57% 30.22 in 10.0 mi SE 9.2 mph - N/A   Clear
3:35 PM 77.0 °F 59.0 °F 54% 30.21 in 10.0 mi ESE 11.5 mph - N/A   Clear
3:55 PM 77.0 °F 59.0 °F 54% 30.21 in 10.0 mi SE 6.9 mph - N/A   Clear
4:15 PM 77.0 °F 59.0 °F 54% 30.20 in 10.0 mi East 8.1 mph - N/A   Clear
4:35 PM 78.8 °F 59.0 °F 51% 30.19 in 10.0 mi East 10.4 mph - N/A   Clear
4:55 PM 77.0 °F 59.0 °F 54% 30.18 in 10.0 mi ESE 8.1 mph - N/A   Clear
5:15 PM 77.0 °F 59.0 °F 54% 30.18 in 10.0 mi ESE 9.2 mph 16.1 mph N/A   Clear
5:35 PM 77.0 °F 59.0 °F 54% 30.18 in 10.0 mi East 8.1 mph - N/A   Clear
5:55 PM 75.2 °F 59.0 °F 57% 30.17 in 10.0 mi East 9.2 mph - N/A   Clear
6:15 PM 75.2 °F 57.2 °F 53% 30.17 in 10.0 mi East 10.4 mph - N/A   Clear
6:35 PM 73.4 °F 57.2 °F 57% 30.17 in 10.0 mi East 9.2 mph - N/A   Clear
6:55 PM 73.4 °F 55.4 °F 53% 30.16 in 10.0 mi East 11.5 mph - N/A   Clear
7:15 PM 73.4 °F 55.4 °F 53% 30.16 in 10.0 mi East 10.4 mph - N/A   Clear
7:35 PM 71.6 °F 55.4 °F 57% 30.16 in 10.0 mi East 6.9 mph - N/A   Clear
7:55 PM 71.6 °F 57.2 °F 60% 30.16 in 10.0 mi ESE 6.9 mph - N/A   Partly Cloudy
8:15 PM 69.8 °F 55.4 °F 60% 30.16 in 10.0 mi SE 6.9 mph - N/A   Clear
8:35 PM 69.8 °F 55.4 °F 60% 30.16 in 10.0 mi SE 9.2 mph - N/A   Clear
8:55 PM 68.0 °F 55.4 °F 64% 30.17 in 10.0 mi SE 8.1 mph - N/A   Clear
9:15 PM 66.2 °F 55.4 °F 68% 30.17 in 10.0 mi SE 6.9 mph - N/A   Clear
9:35 PM 66.2 °F 55.4 °F 68% 30.19 in 10.0 mi SSE 8.1 mph - N/A   Clear
9:55 PM 66.2 °F 55.4 °F 68% 30.19 in 10.0 mi SSE 8.1 mph - N/A   Clear
10:15 PM 66.2 °F 55.4 °F 68% 30.20 in 10.0 mi SSE 6.9 mph - N/A   Clear
10:35 PM 64.4 °F 53.6 °F 68% 30.20 in 10.0 mi SSE 9.2 mph - N/A   Clear
10:55 PM 64.4 °F 53.6 °F 68% 30.20 in 10.0 mi SE 5.8 mph - N/A   Clear
11:15 PM 62.6 °F 53.6 °F 72% 30.20 in 10.0 mi SE 8.1 mph - N/A   Clear
11:35 PM 62.6 °F 53.6 °F 72% 30.20 in 10.0 mi SE 8.1 mph - N/A   Clear
11:55 PM 62.6 °F 51.8 °F 68% 30.20 in 10.0 mi ESE 8.1 mph - N/A   Clear